IZ1DME-3 Weather Reports


Display with metric or nautical units.
time (UTC)temp
F
wind
direction
speed
MPH
gust
MPH
rain 1hr
in
rain 24hr
in
rain mn
in
humidity
%
barometer
mb
20260507084710 56 0.0 0.0 0.00 0.00 0.00 81 1016.3
20260507082210 55 0.0 0.0 0.00 0.00 0.00 81 1016.3
20260507075711 55 0.0 0.0 0.00 0.00 0.00 82 1016.2
20260507073210 55 0.0 0.0 0.00 0.00 0.00 81 1016.2
20260507070710 54 0.0 0.0 0.00 0.00 0.00 83 1016.4
20260507064210 53 0.0 0.0 0.00 0.00 0.00 87 1016.2
20260507061710 52 0.0 0.0 0.00 0.00 0.00 88 1016.2
20260507055210 52 0.0 0.0 0.00 0.00 0.00 89 1016.0
20260507052711 52 0.0 0.0 0.00 0.00 0.00 90 1015.6
20260507050210 51 0.0 0.0 0.00 0.00 0.00 90 1015.3
20260507043710 51 0.0 0.0 0.00 0.00 0.00 90 1015.1
20260507041210 51 0.0 0.0 0.00 0.00 0.00 91 1014.8
20260507034710 52 0.0 0.0 0.00 0.00 0.00 94 1014.8
20260507032211 51 0.0 0.0 0.00 0.00 0.00 96 1014.6
20260507025711 52 0.0 0.0 0.00 0.00 0.00 96 1014.6
20260507023211 52 0.0 0.0 0.00 0.00 0.00 95 1014.5
20260507020710 53 0.0 0.0 0.00 0.00 0.00 93 1014.3
20260507014211 53 0.0 0.0 0.00 0.00 0.00 92 1014.2
20260507011711 53 0.0 0.0 0.00 0.00 0.00 94 1014.2
20260507005210 53 0.0 0.0 0.00 0.00 0.00 94 1014.2
20260507002711 53 0.0 0.0 0.00 0.00 0.00 92 1014.1
20260507000212 54 0.0 0.0 0.00 0.00 0.00 90 1014.0
20260506233711 54 0.0 0.0 0.00 0.00 0.00 90 1014.0
20260506231211 55 0.0 0.0 0.00 0.00 0.00 91 1013.8
20260506224711 55 0.0 0.0 0.00 0.00 0.00 91 1013.7
20260506222210 55 0.0 0.0 0.00 0.00 0.00 93 1013.4
20260506215710 55 0.0 0.0 0.00 0.00 0.00 92 1013.2
20260506213210 55 0.0 0.0 0.00 0.00 0.00 91 1012.9
20260506210711 55 0.0 0.0 0.00 0.00 0.00 86 1012.5
20260506204210 57 0.0 0.0 0.00 0.00 0.00 84 1012.4
20260506201711 58 0.0 0.0 0.00 0.00 0.00 82 1011.8
20260506195211 59 0.0 0.0 0.00 0.00 0.00 79 1011.3
20260506192711 60 0.0 0.0 0.00 0.00 0.00 71 1010.2
20260506190210 61 0.0 0.0 0.00 0.00 0.00 71 1009.5
20260506183710 62 0.0 0.0 0.00 0.00 0.00 66 1009.0
20260506181339 64 0.0 0.0 0.00 0.00 0.00 64 1008.3